Ana Sayfa
METAR-TAF:

METAR-TAF

Havaalanları :

Ambato, Ekvador

Enlem: 01-12-43S, Boylam: 078-34-28W, yükseklik: 2591 m

Güncel hava durumu gözlemi

Rapor saat 18:00 UTC de 52 dakika önce yapıldı.
Rüzgar doğu/güneydoğudan 10 kt
Sıcaklık 20°C
Nem 60%
Basınç 1028 hPa
Görüş mesafesi 10 km veya daha fazla
2000 ft yükseklikte parçalı çok bulutlu

METAR: SEAM 201800Z 12010KT 9999 BKN020 20/12 Q1028

Saat: 13:52 (18:52 UTC)


TAF: eksik

4.000'den fazla havaalanı için hava durumu gözlemleri ve tahminleri (METAR ve TAF raporları).

Kullanılabilir istasyonlar harita üzerinde sarı ve kırmızı noktalarla gösterilir.

İstasyonun adını görmek için fareyi noktanın üzerinde gezdirin.

Sonrasında hava gözlem ve tahminlerini görmek için tıklayın.

Haritayı değiştirmek için: yaklaştırmak için siyah artı işaretli yeşil düğmeye ve uzaklaştırmak için de eksi işaretli düğmeye hızla tıklayın; bitişik haritalar için yeşil okları kullanın.


METAR-TAF: